Location: Bazugues
(43.4465°N, 0.3432°E)
Time: 08:47:03
(UTC+00:00)

BREEZE M DEB (TANK) - Pass Details

Date: 12 January 2026
Orbit: 296 x 13742 km, 49.5° (Epoch: 16 February)

Event Time Altitude Azimuth Distance (km) Brightness Sun altitude
Rises 17:10:07 0° 299° (WNW) 2,059 6.3 -5.0°
Reaches altitude 10° 17:11:53 10° 308° (NW) 1,161 4.9 -5.3°
Maximum altitude 17:13:55 42° 24° (NNE) 487 2.3 -5.6°
Drops below altitude 10° 17:16:54 10° 98° (E) 1,705 4.8 -6.1°
Enters shadow 17:20:23 - 106° (ESE) 3,462 6.4 -6.7°
